Погода в Гисборне

Новая Зеландия     38°40′04″S   178°01′37″E
темп.,
°C
ветер,
м/с
пор.,
м/с
влажн.,
%
обл.,
%
осадки,
мм/ч
давл.,
гПа
погр.,
м
27 февраля, сб
сб2701:00+16зсз338597 0.0 102199
04:00+16сз338482 0.0 1020107
07:00+15сз348591 0.0 1020129
10:00+18ссз2273100 0.0 1020200
13:00+19в567699 0.1 1019420
16:00+19всв677394 0.0 1018529
19:00+19св577597 0.0 1017461
22:00+18ссв367870 0.0 1019473
28 февраля, вс
вс2801:00+16сз338447 0.0 1018149
04:00+15сз33840 0.0 1017123
07:00+15сз34830 0.0 1017126
10:00+17с127440 0.0 1018214
13:00+19в467770 0.0 1017498
16:00+19всв7874100 0.0 1016682
19:00+19всв577496 0.0 1016763
22:00+18ссв4678100 0.0 1017678
1 марта, пн
пн101:00+16ссз2385100 0.1 1017190
04:00+15сз238694 0.1 1016135
07:00+16ссз228497 0.4 1016184
10:00+17св1379100 0.4 1016301
13:00+18в4571100 0.4 1015679
16:00+18в6776100 0.0 1013697
19:00+18всв5679100 0.1 1013640
22:00+17св4682100 0.1 1014568
2 марта, вт
вт201:00+16ссз348799 0.1 1013256
04:00+15ссз338778 0.0 1011144
07:00+14сз338888 0.0 1011147
10:00+16с237841 0.0 1011273
13:00+18всв677620 0.0 1010541
16:00+19всв897471 0.0 1008558
19:00+19св697750 0.0 1007404
22:00+17с34840 0.0 1008175
3 марта, ср
ср301:00+16сз56860 0.0 1007181
04:00+16сз57850 0.0 1006218
07:00+17сз56830 0.0 1006153
10:00+20сз46740 0.0 1006295
13:00+22всв546722 0.0 1005329
16:00+19в457697 0.0 1004202
19:00+20св118294 0.0 100340
22:00+19сз477966 0.0 1005131